COSMOS 2434 (721)

Last updated on June 26, 2019, 3:46 a.m. UTC

1 32393U 07065A   19176.13889686 -.00000031  00000-0  00000+0 0  9995
2 32393  64.7183 278.7176 0004219 116.1851 311.9722  2.13102985 89483
UTC
Height (km)
Latitude
Longitude
Inclination
Orbital Period
UTC large
Height (km)
Speed (km/s)
/
Latitude / Longitude
Inclination (degrees)
Orbital Period (minutes)
Azimuth
Elevation
Range (km)
Doppler Factor
iOS Compass Heading
iOS Angle

Next 30 passes for location: Hong Kong

Rise time Rise Azimuth (degrees) Set time Set Azimuth (degrees) Duration Max altitude (degrees)

No matching passes for this satellites